Sisters Island, British Columbia

3:56 PM PDT on March 26, 2017 (GMT -0700)
Sisters Island

Weather History for CWGT - January, 2013

Change the Weather History Date:

Tuesday, January 29, 2013

  Actual Average Record
Temperature  
Mean Temperature 42 °F -  
Max Temperature 43 °F - - ()
Min Temperature 40 °F - - ()
Degree Days  
Heating Degree Days 24    
Moisture  
Dew Point 38 °F    
Average Humidity 84    
Maximum Humidity 94    
Minimum Humidity 72    
Precipitation  
Precipitation 0.00 in - - ()
Sea Level Pressure  
Sea Level Pressure 30.20 in    
Wind  
Wind Speed 7 mph ()    
Max Wind Speed 15 mph    
Max Gust Speed -    
T = Trace of Precipitation, MM = Missing Value Source: Averaged Metar Reports

Daily Weather History Graph

Daily Weather History Graph

Search for Another Location

Airport or City:

Trip Planner

Search our weather history database for the weather conditions in past years. The results will help you decide how hot, cold, wet, or windy it might be!

Date:

Astronomy

Jan. 29, 2013 Rise Set
Actual Time 7:53 AM PST 5:09 PM PST
Civil Twilight 7:18 AM PST 5:44 PM PST
Nautical Twilight 6:39 AM PST 6:22 PM PST
Astronomical Twilight 6:02 AM PST 7:00 PM PST
Moon 8:34 PM PST (1/29) 8:33 AM PST (1/29)
Length of Visible Light 10h 25m
Length of Day
9h 16m
Waning Gibbous, 93% of the Moon is Illuminated
Jan 29
Waning Gibbous
Feb 3
Last Quarter
Feb 9
New
Feb 17
First Quarter
Feb 25
Full

Hourly Weather History & Observations

Time (PST) Temp. Windchill Dew Point Humidity Pressure Visibility Wind Dir Wind Speed Gust Speed Precip Events Conditions
12:00 AM 40.5 °F 34.6 °F 36.9 °F 87% 30.04 in - NW 9.2 mph - N/A   Unknown
1:00 AM 40.5 °F 34.1 °F 36.3 °F 85% 30.05 in - West 10.4 mph - N/A   Unknown
2:00 AM 41.5 °F 35.0 °F 35.6 °F 79% 30.05 in - WNW 11.5 mph - N/A   Unknown
3:00 AM 41.2 °F 36.6 °F 35.2 °F 79% 30.08 in - NW 6.9 mph - N/A   Unknown
4:00 AM 42 °F - 36 °F 72% 30.11 in - NNW 5.8 mph - -  
4:00 AM 41.5 °F 37.8 °F 36.1 °F 81% 30.11 in - NNW 5.8 mph - N/A   Unknown
5:00 AM 41.4 °F 38.4 °F 36.3 °F 82% 30.13 in - NNW 4.6 mph - N/A   Unknown
6:00 AM 41.7 °F - 37.8 °F 86% 30.14 in - WSW 2.3 mph - N/A   Unknown
7:00 AM 42.4 °F 38.1 °F 37.4 °F 82% 30.17 in - West 6.9 mph - N/A   Unknown
8:00 AM 42.6 °F 36.8 °F 37.6 °F 82% 30.19 in - West 10.4 mph - N/A   Unknown
9:00 AM 42.4 °F 38.1 °F 37.4 °F 82% 30.21 in - WSW 6.9 mph - N/A   Unknown
10:00 AM 43 °F - 38 °F 77% 30.23 in - WSW 4.6 mph - -  
10:00 AM 43.3 °F 40.7 °F 38.1 °F 82% 30.23 in - WSW 4.6 mph - N/A   Unknown
11:00 AM 43.7 °F 42.1 °F 38.3 °F 81% 30.25 in - SW 3.5 mph - N/A   Unknown
12:00 PM 43.3 °F 41.7 °F 38.1 °F 82% 30.24 in - SSW 3.5 mph - N/A   Unknown
1:00 PM 43.9 °F - 39.4 °F 84% 30.25 in - WSW 2.3 mph - N/A   Unknown
2:00 PM 43.7 °F - 38.8 °F 83% 30.24 in - East 2.3 mph - N/A   Unknown
3:00 PM 43.9 °F 42.3 °F 37.9 °F 80% 30.25 in - ESE 3.5 mph - N/A   Unknown
4:00 PM 43 °F - 40 °F 83% 30.26 in - ESE 10.4 mph - -  
4:00 PM 43.0 °F 37.2 °F 39.6 °F 88% 30.26 in - ESE 10.4 mph - N/A   Unknown
5:00 PM 42.6 °F 35.9 °F 39.9 °F 90% 30.25 in - ESE 12.7 mph - N/A   Unknown
6:00 PM 42.1 °F 34.5 °F 39.6 °F 91% 30.25 in - ESE 15.0 mph - N/A   Unknown
7:00 PM 42.1 °F 34.5 °F 39.6 °F 91% 30.25 in - ESE 15.0 mph - N/A   Unknown
8:00 PM 42.3 °F 34.8 °F 39.7 °F 91% 30.26 in - ESE 15.0 mph - N/A   Unknown
9:00 PM 42.3 °F 36.8 °F 39.6 °F 90% 30.26 in - ESE 9.2 mph - N/A   Unknown
10:00 PM 42 °F - 39 °F 86% 30.27 in - NE 3.5 mph - -  
10:00 PM 41.9 °F 40.0 °F 39.2 °F 90% 30.27 in - NE 3.5 mph - N/A   Unknown
11:00 PM 41.5 °F - 39.9 °F 94% 30.27 in - NE 1.2 mph - N/A   Unknown